Theta_e
339 328 322 312 298 297 294 298 298 306 307 307 308 306 305 307 307 305 322 335 343 346 351 353 356 355 352 351 348 345 343 340 338 335 334 334 336 336 337 335 335 333 333 332 333 334 335 337 338
335 329 314 306 294 288 292 299 300 303 307 309 310 308 306 306 317 321 322 330 344 346 350 351 355 355 353 351 348 346 343 340 338 335 334 333 336 337 335 334 334 333 332 331 331 331 332 332 333
330 326 306 300 296 291 291 299 301 306 308 309 308 310 308 310 319 321 325 329 345 346 349 351 355 355 355 352 349 346 344 340 338 334 335 335 337 340 333 335 334 332 331 330 329 329 329 331 331
318 311 306 296 294 299 299 298 302 305 308 311 308 306 314 317 318 324 328 329 330 338 344 352 355 355 355 353 349 346 344 341 338 336 335 334 337 340 338 336 333 333 332 330 329 329 329 328 328
313 306 296 294 296 300 302 301 304 302 305 307 308 306 311 319 323 326 327 329 337 343 347 351 355 355 355 352 348 346 344 342 337 336 336 338 339 341 339 337 334 333 331 331 330 330 330 332 333
307 304 293 291 295 302 303 304 302 301 302 306 306 305 309 319 322 324 327 326 342 343 348 350 351 353 353 351 349 346 344 341 338 336 339 339 340 342 340 337 335 333 333 333 333 332 333 336 337
304 299 294 294 296 300 304 304 300 300 302 304 307 304 308 315 323 327 325 327 332 341 344 346 347 349 350 350 348 348 344 342 341 337 337 339 338 338 337 339 336 335 335 335 335 335 334 334 336
308 302 297 295 297 298 305 304 303 302 302 310 308 304 305 314 324 327 326 327 329 334 338 342 343 345 343 345 347 346 345 343 342 340 338 337 335 336 339 338 338 337 336 335 333 333 334 334 334
314 299 296 298 299 301 305 304 308 310 306 308 308 307 312 319 323 323 322 323 326 330 332 335 338 340 339 344 343 344 343 341 340 338 336 333 329 328 331 333 334 338 335 333 333 334 335 337 336
307 299 301 305 304 302 306 305 307 307 307 306 307 311 311 315 316 319 319 320 322 325 328 330 333 334 336 344 340 339 339 337 335 333 330 330 327 325 328 329 333 335 335 336 335 335 337 335 328
308 303 306 307 309 308 306 305 308 304 303 308 307 310 312 313 312 312 310 319 321 324 327 329 329 332 335 336 338 337 335 333 333 331 330 329 329 323 323 323 325 324 326 325 327 326 328 326 325
304 309 310 310 311 309 305 308 305 305 305 310 311 311 311 312 312 312 312 309 314 322 326 329 330 329 331 335 336 335 333 332 330 331 329 325 322 320 320 320 321 322 323 322 323 322 322 323 325
303 306 310 311 311 310 309 305 305 305 309 311 312 312 311 311 312 313 310 312 316 321 323 327 328 329 329 331 332 330 332 330 328 327 327 325 323 322 322 322 322 322 323 323 323 325 326 327 325
304 306 307 310 310 309 306 305 305 307 309 309 309 310 310 310 310 309 309 310 313 318 321 325 326 326 329 329 330 330 330 332 331 331 331 328 327 325 325 325 326 328 328 328 327 326 326 325 324
304 300 302 303 308 307 309 302 302 307 309 307 309 308 310 306 308 309 311 312 312 312 313 316 318 321 324 328 329 330 333 333 332 331 331 331 328 326 326 327 325 326 327 322 318 313 312 310 310
298 298 293 301 305 307 306 298 305 307 306 306 307 305 304 308 309 309 311 311 312 312 314 317 319 315 317 324 328 331 333 331 329 328 324 320 320 326 321 313 311 313 312 308 306 305 305 304 304
294 289 292 296 305 305 304 299 305 307 306 305 303 303 303 305 307 308 311 310 311 312 316 317 318 315 319 326 326 323 321 317 315 314 313 311 310 311 310 309 306 306 306 304 303 303 302 301 301
287 288 292 293 299 302 301 301 303 305 306 306 304 303 301 305 306 308 311 313 316 318 318 319 321 322 324 320 316 313 312 311 310 308 306 306 306 305 305 304 302 303 302 301 299 299 298 298 298
292 290 290 296 301 300 299 300 303 304 304 301 302 300 301 303 306 309 311 314 317 318 319 320 322 322 324 317 313 310 307 306 305 305 303 302 302 301 300 300 299 299 298 296 296 296 295 295 295
292 290 290 296 301 300 299 299 303 305 304 306 303 303 301 303 305 307 309 311 314 315 316 317 316 316 317 315 312 309 307 305 304 303 300 298 298 298 297 296 296 295 295 293 292 292 292 293 293
291 289 289 291 297 299 297 296 299 302 305 304 305 305 305 304 305 304 304 307 309 309 311 312 312 312 312 311 310 309 307 304 302 301 299 297 296 295 295 294 293 293 293 291 290 290 290 289 292
287 294 293 292 293 288 297 288 294 299 300 300 300 300 304 304 305 305 305 305 306 306 308 310 311 311 310 310 308 305 302 300 300 300 298 296 294 293 294 293 292 291 292 290 290 291 289 290 289
289 295 293 293 292 293 293 291 292 296 296 300 303 299 303 304 305 305 306 307 307 305 304 304 305 305 305 304 304 303 300 299 298 296 294 294 292 292 292 291 290 290 290 289 288 288 288 288 289
295 292 292 292 291 285 291 292 289 293 298 299 300 301 302 303 304 306 307 307 305 303 302 302 303 301 301 301 300 299 296 295 293 292 291 291 291 291 290 290 288 288 288 288 288 288 287 287 288
292 286 280 279 281 282 292 291 293 296 297 300 298 301 302 304 305 305 305 304 303 301 301 301 300 298 297 297 296 294 292 291 290 290 289 288 288 288 287 287 287 287 287 287 287 287 287 287 286
288 287 279 275 279 283 293 286 291 303 298 300 302 302 302 303 305 305 305 304 302 302 300 298 297 295 295 294 293 292 291 290 289 289 288 287 287 287 286 286 286 286 286 286 286 286 286 286 284
287 284 290 286 286 286 289 290 292 295 296 300 300 301 301 302 303 304 305 304 302 299 298 297 295 294 293 292 290 289 289 288 287 287 287 286 286 288 286 285 285 285 285 285 285 285 284 284 283
292 294 283 285 279 281 284 285 286 291 293 298 299 299 301 302 303 304 304 303 301 300 297 296 295 293 292 290 289 288 287 287 287 286 285 285 285 285 285 285 284 284 284 284 283 283 284 283 283
289 289 289 290 287 282 280 285 292 293 296 297 299 300 301 302 302 303 304 303 301 299 297 294 293 292 290 289 288 287 287 287 286 285 285 284 284 284 284 284 284 284 284 284 283 283 283 282 282
296 292 292 283 285 288 285 284 294 295 296 299 299 301 302 303 303 303 303 301 300 297 295 293 292 291 289 289 288 287 287 285 284 284 284 285 284 284 284 284 284 284 285 284 283 282 282 281 281
Wind_Speed
10 8 3 5 5 4 4 7 2 8 4 4 2 2 4 4 3 3 4 9 15 13 12 13 17 16 15 15 15 14 12 9 7 6 7 7 7 7 7 6 6 5 6 5 5 5 6 8 8
6 6 5 2 4 2 6 2 6 4 3 3 6 2 4 3 3 6 3 8 15 14 11 12 17 16 15 15 15 15 12 9 7 6 5 3 2 8 6 6 5 5 4 3 2 3 2 4 3
7 3 3 2 2 5 4 2 3 2 6 2 3 2 4 3 3 4 5 10 15 13 13 12 17 15 14 16 15 15 13 9 8 6 4 1 0 9 5 7 6 6 4 3 2 2 1 1 0
3 5 4 1 9 12 5 7 1 3 6 6 3 4 4 3 2 8 8 9 12 8 11 16 16 15 11 11 14 14 13 10 8 6 5 2 2 3 9 9 7 6 4 3 2 1 1 1 2
4 2 1 3 7 9 6 5 5 3 2 3 2 1 3 4 5 8 7 8 12 7 10 12 17 15 12 13 13 13 12 10 8 7 5 2 5 5 9 11 8 6 4 3 2 3 3 4 5
2 2 1 5 8 10 8 3 3 2 4 7 2 4 0 1 4 4 5 8 12 11 10 10 12 13 13 14 13 13 11 10 8 7 7 6 7 6 8 8 7 5 4 3 4 4 5 6 7
4 2 5 5 8 10 5 5 5 3 2 3 5 3 3 1 4 6 6 8 10 11 9 8 7 9 11 13 13 12 11 10 8 7 5 7 5 5 6 9 8 6 5 5 6 7 8 8 9
3 4 5 6 8 14 4 2 2 4 2 4 3 3 4 6 7 7 7 7 7 10 10 9 7 6 6 7 12 12 11 10 8 7 6 6 7 7 8 9 8 7 6 6 7 8 9 9 10
1 2 8 9 10 13 4 4 2 4 3 2 4 4 7 9 8 5 4 5 6 6 10 9 10 9 8 8 9 11 12 11 10 9 8 6 5 6 6 6 8 8 8 8 9 9 10 10 10
6 5 10 5 8 7 10 7 4 2 2 3 5 5 3 2 3 6 6 7 7 8 8 11 10 10 9 8 7 7 7 5 5 6 6 5 4 4 6 8 11 11 9 8 10 11 11 9 4
5 11 5 5 14 12 8 3 2 1 2 4 5 7 2 8 6 7 6 9 11 10 6 9 11 10 10 6 6 5 4 4 4 6 6 5 3 3 3 2 3 3 5 4 5 5 4 5 4
10 11 14 12 17 15 5 5 3 5 6 4 7 7 5 7 7 6 7 6 8 8 10 9 9 8 8 6 7 7 5 5 4 5 6 4 3 2 1 1 3 3 3 4 5 3 5 5 6
13 13 14 16 17 19 11 10 9 5 6 8 10 10 11 9 9 7 3 3 4 8 8 9 8 8 7 7 6 5 6 5 5 5 5 5 3 3 1 1 1 2 2 3 3 3 3 3 4
9 12 17 19 16 15 17 8 5 7 6 8 10 10 10 10 9 5 3 3 6 2 8 8 8 8 7 6 6 4 5 5 4 4 4 5 4 3 2 3 3 3 3 2 2 3 4 5 5
8 16 15 18 15 13 10 15 11 9 7 9 16 9 12 4 5 6 6 6 4 3 3 6 6 5 6 7 7 5 4 4 4 4 6 5 4 4 3 4 4 4 5 7 7 7 5 5 5
5 6 14 7 10 7 5 21 9 8 8 12 13 10 7 8 8 7 6 4 4 3 3 3 4 5 5 6 4 4 5 7 7 7 7 10 9 8 6 6 6 5 5 5 4 5 5 5 5
5 7 8 10 6 6 10 16 11 9 8 14 9 10 8 7 6 6 6 5 4 3 5 2 2 4 6 9 9 11 11 9 8 8 8 11 11 8 8 6 5 6 5 6 5 4 4 4 5
10 6 6 8 6 10 14 17 10 10 14 18 10 10 8 9 7 7 7 6 6 5 5 5 4 7 9 11 10 10 10 8 9 7 8 10 7 8 7 6 7 6 5 5 4 5 3 2 4
9 11 11 9 10 14 20 19 18 11 11 9 10 8 7 7 7 8 6 7 7 5 7 6 7 6 9 8 7 7 6 6 7 7 9 9 7 8 7 5 5 5 5 5 6 4 5 3 5
14 15 21 15 14 11 14 19 22 17 13 16 11 10 11 8 8 8 8 7 7 6 6 7 7 7 9 7 5 5 5 6 6 5 6 7 7 7 6 6 5 6 4 6 6 5 4 3 5
17 17 17 17 14 15 9 17 22 13 18 12 12 10 17 18 15 9 8 9 8 7 7 8 7 11 11 13 10 8 7 5 4 4 4 4 7 7 6 6 5 5 5 4 3 4 6 3 3
18 16 16 17 13 11 4 7 13 15 16 9 11 9 17 13 10 10 13 10 9 6 7 7 8 10 9 9 10 8 5 5 2 3 3 4 6 6 6 6 6 5 4 5 4 4 3 3 4
17 8 10 14 15 16 18 7 8 7 13 18 19 10 17 18 18 16 14 13 9 8 7 7 9 8 8 8 8 8 7 4 3 4 6 6 5 6 6 6 6 5 4 4 4 4 5 2 2
13 3 8 9 7 12 16 12 7 8 17 10 10 16 17 16 14 13 13 13 9 7 8 8 11 8 9 9 8 9 9 7 6 5 5 4 3 4 5 5 5 4 4 4 3 3 5 4 3
13 4 4 5 7 13 8 17 14 6 9 12 16 19 19 17 17 17 16 14 9 8 8 8 10 9 9 11 9 9 9 9 8 6 4 4 2 2 4 4 5 3 4 5 4 4 5 4 3
10 16 6 8 10 10 14 10 9 21 8 10 20 22 20 18 16 16 15 13 10 9 8 9 10 9 8 9 8 7 8 5 5 5 3 3 2 2 3 4 4 5 5 5 5 3 4 5 5
10 14 19 6 4 1 8 9 5 3 7 16 19 21 19 18 17 17 15 13 10 8 9 10 10 8 8 8 7 7 7 7 6 5 4 3 3 2 4 4 5 6 6 6 6 4 5 5 4
12 12 9 7 4 8 5 5 6 6 9 13 18 19 16 16 16 15 14 13 8 9 9 9 9 9 8 8 6 6 7 6 6 5 5 4 4 4 5 5 5 6 6 6 5 4 5 5 4
13 13 8 4 9 4 5 5 6 11 14 17 18 18 18 18 16 15 14 12 10 10 10 9 8 9 8 7 6 7 6 6 5 5 4 4 4 5 5 5 6 6 6 6 5 6 6 6 5
13 9 9 8 11 17 5 4 4 9 10 13 14 16 16 17 15 15 15 13 13 11 10 10 8 8 7 7 7 6 6 6 6 5 4 4 4 4 5 5 5 6 6 6 6 6 6 5 6
Wind_Direction
316 311 311 25 33 64 261 260 240 305 43 152 210 138 191 216 251 188 235 127 123 142 152 157 155 160 163 153 149 145 144 143 137 133 123 153 135 109 113 85 67 75 67 73 65 51 48 51 56
310 318 22 41 92 2 274 286 27 346 301 308 10 8 85 62 77 120 90 135 140 145 152 157 161 167 166 157 152 146 147 148 144 147 146 171 91 133 121 95 91 85 73 83 58 65 96 82 62
315 194 76 120 186 206 231 275 125 346 338 14 24 2 51 357 99 123 182 123 139 147 153 160 166 174 170 161 159 150 149 153 150 148 169 233 327 154 151 135 115 101 97 98 82 87 77 104 21
323 352 7 128 260 264 240 276 132 24 344 21 3 45 68 259 123 155 168 137 131 154 162 162 166 170 165 158 154 149 152 156 157 161 167 204 272 210 133 140 142 141 137 139 145 190 221 256 263
16 56 258 248 255 269 266 241 124 108 287 297 50 9 78 16 94 140 151 149 121 129 143 157 162 164 163 155 159 154 159 159 159 163 152 105 206 139 162 152 160 165 174 189 208 247 261 281 289
322 115 142 225 260 276 303 283 103 70 336 309 36 91 81 188 84 160 152 136 138 138 143 153 158 158 153 163 163 161 162 162 166 166 143 111 100 141 165 164 178 192 206 247 279 284 282 291 279
165 65 222 239 262 288 283 300 132 113 343 344 291 70 191 116 177 183 170 120 135 141 140 144 155 156 157 164 165 165 171 165 172 175 163 142 135 138 155 176 199 214 241 269 283 279 289 291 290
154 147 244 227 252 277 262 217 190 131 232 289 53 113 214 210 181 138 128 138 141 144 148 157 160 158 166 169 169 169 173 171 178 178 170 173 187 199 201 191 213 229 245 266 279 281 283 285 287
353 242 229 222 228 254 268 243 215 157 100 354 272 201 214 176 158 135 158 158 157 165 164 166 169 177 181 176 178 178 176 184 185 190 202 204 213 225 222 211 225 219 228 250 266 272 274 272 271
191 208 236 213 230 243 272 225 208 111 31 306 324 0 113 126 149 162 188 199 184 192 181 172 177 182 182 179 166 177 180 191 192 195 209 211 216 226 217 198 202 208 226 244 257 265 268 271 257
248 238 269 255 254 263 267 264 279 68 284 233 259 302 230 193 204 226 215 201 204 193 180 172 175 186 180 174 165 176 185 191 204 205 209 210 217 200 178 191 227 228 241 245 260 275 262 254 250
256 245 246 259 273 276 259 271 228 201 222 238 275 262 262 287 273 252 268 267 191 184 190 184 177 170 173 158 169 179 180 186 197 213 206 171 187 177 212 203 225 218 234 244 246 246 251 255 251
259 253 253 245 243 260 264 250 238 236 259 288 289 291 288 286 258 237 183 259 137 182 194 188 172 175 173 162 175 164 181 176 173 159 148 131 125 114 109 134 223 249 225 227 280 301 330 335 334
284 264 266 255 258 250 258 247 209 238 225 269 263 255 269 256 251 179 106 72 29 143 175 182 178 171 168 159 171 169 160 149 131 148 134 117 109 115 72 22 355 11 31 31 61 13 359 357 354
271 273 262 250 255 251 283 265 223 226 216 237 254 249 260 264 154 141 129 106 90 62 104 129 123 115 153 174 156 155 133 125 119 97 109 107 92 87 68 52 35 5 18 31 37 22 20 16 0
272 280 255 262 248 249 232 259 257 242 219 245 255 243 194 191 146 138 120 112 131 129 99 101 109 110 108 136 143 106 88 74 71 71 65 63 49 54 62 62 38 25 36 38 40 21 10 4 3
239 269 269 275 249 237 229 267 250 243 245 259 249 258 190 178 129 132 119 106 169 163 143 119 147 148 103 89 86 84 79 78 74 72 65 63 56 46 62 53 37 29 38 32 21 23 23 359 348
238 259 256 248 241 247 254 258 258 237 227 242 252 232 186 171 160 138 121 106 95 123 118 112 118 121 110 96 90 84 78 72 75 74 65 61 59 52 56 46 34 29 36 25 18 18 355 348 331
291 287 280 268 241 230 238 248 254 245 242 240 241 239 173 162 165 130 120 104 101 97 120 128 118 117 106 102 101 86 86 85 75 71 68 61 59 55 52 48 39 29 47 31 18 353 350 331 347
246 264 268 286 277 277 248 237 239 234 229 233 218 235 150 161 150 141 128 100 80 90 83 82 83 83 93 99 97 102 105 80 85 81 71 70 64 56 64 53 41 39 44 30 24 29 351 323 10
233 236 247 255 299 290 279 256 249 241 239 228 221 214 166 167 159 149 132 113 101 91 90 94 97 100 101 106 104 98 82 64 68 66 76 71 71 60 60 53 52 45 51 35 15 24 29 338 321
243 228 260 258 270 258 256 272 250 228 233 213 214 186 171 162 143 140 130 116 111 101 94 94 92 99 101 111 113 117 118 121 122 123 107 83 71 60 52 47 45 47 37 29 360 21 27 11 341
248 251 271 252 260 281 262 259 261 207 231 234 225 164 169 162 153 146 131 124 114 104 95 86 84 83 93 99 108 110 102 103 100 90 91 85 61 52 46 45 42 39 30 15 19 13 4 355 325
249 267 302 275 261 243 238 249 253 205 217 230 196 157 156 148 141 130 120 116 111 106 96 89 91 81 85 93 94 105 110 105 89 75 75 67 68 45 36 35 33 27 21 5 360 360 353 340 315
218 147 233 207 210 244 217 234 247 246 253 190 156 156 149 143 141 136 132 128 124 124 116 107 101 90 88 92 94 100 100 95 97 94 91 72 42 31 22 29 18 4 353 358 358 351 346 325 330
202 192 210 198 208 226 206 227 241 236 296 125 145 145 141 144 144 140 138 132 134 136 122 112 109 106 97 95 94 91 95 94 93 99 95 84 71 73 24 22 17 360 355 355 356 347 336 337 326
194 206 214 327 296 299 176 236 317 50 106 124 137 139 145 146 147 144 139 141 141 137 132 127 118 113 106 105 100 95 97 99 104 97 87 81 44 38 27 15 3 354 356 355 353 342 327 319 303
205 157 171 211 271 204 223 180 194 178 151 144 146 148 148 145 145 144 143 143 136 137 129 119 120 122 120 113 108 107 109 104 102 89 77 59 38 26 17 0 359 352 347 344 342 324 307 309 308
195 180 184 222 229 271 143 246 220 172 166 162 162 157 151 152 150 146 145 141 134 133 131 127 124 122 115 112 112 108 101 96 93 83 69 55 38 17 6 351 346 339 331 325 320 306 296 312 332
198 185 157 189 193 218 137 275 7 161 168 157 154 154 150 149 146 143 143 139 142 139 135 136 127 121 125 125 115 106 99 92 81 73 53 42 23 2 349 341 330 319 314 304 300 298 309 319 309